Wind_Speed
106 105 104 103 104 104 105 105 106 106 107 107 108 108 107 105 102 101 99 98 97 96 95 94 94 93 93 93 93 93 92 91 90 89 89 89 88 87 85 84 83 82 83 86 88 87 87 87 86 86 87 87 87 88 88 88 89 91 92 93 94 96 98
106 105 105 105 105 106 107 107 107 108 109 109 109 107 105 102 101 99 98 98 97 97 96 95 95 95 94 94 95 95 94 92 92 91 91 91 91 90 89 87 85 83 83 85 87 88 88 87 86 86 87 87 86 87 88 88 89 90 91 92 93 95 97
106 106 106 107 107 108 109 109 109 110 110 109 107 105 102 101 100 99 98 98 98 97 97 96 96 96 96 96 96 96 95 94 94 93 94 94 93 92 91 89 87 86 84 84 86 88 89 88 88 88 88 88 88 88 88 88 90 91 92 93 94 95 96
108 108 109 109 109 110 110 111 112 112 110 107 105 103 101 100 99 99 99 99 98 98 98 97 97 98 97 97 97 97 97 96 95 96 96 96 95 95 93 92 90 88 86 84 85 87 89 89 89 89 89 89 89 89 90 90 91 92 93 94 95 96 96
110 111 111 111 112 112 113 113 113 111 108 105 103 102 101 100 100 100 99 99 99 99 99 98 99 99 99 98 98 98 98 97 97 97 98 98 97 96 95 94 92 90 88 86 85 86 89 90 90 90 91 91 90 91 91 91 92 93 95 96 97 97 97
113 114 114 114 114 114 115 114 112 109 106 103 102 102 101 101 101 101 100 100 100 100 100 100 100 101 100 100 100 100 99 99 99 99 100 100 99 98 97 96 94 92 90 88 86 86 88 90 90 91 92 92 91 92 93 93 93 94 96 98 99 100 100
116 116 116 116 116 116 114 112 109 106 105 103 103 102 102 102 102 102 101 101 101 101 101 101 102 102 102 102 102 101 101 101 101 101 102 102 101 100 98 97 95 93 91 89 88 87 88 90 91 92 93 93 93 93 94 94 94 95 97 98 99 101 102
118 118 118 117 116 114 112 109 107 106 105 105 105 104 103 103 102 102 102 102 102 102 102 103 103 104 104 104 104 103 103 103 103 104 104 104 103 101 100 98 97 94 92 91 89 88 88 89 91 93 94 94 94 95 95 95 95 96 97 99 100 102 104
118 118 116 115 113 111 110 108 107 107 107 107 106 105 104 104 103 103 103 103 103 103 104 104 105 105 106 106 106 105 105 105 106 106 106 105 104 102 101 99 97 95 93 91 90 89 89 90 92 94 95 95 95 96 97 97 97 97 97 98 99 102 105
116 115 114 113 112 111 110 110 109 109 109 108 107 106 105 105 105 105 104 104 104 104 105 106 106 107 108 107 107 107 107 108 108 108 107 106 105 103 101 99 97 95 94 92 90 90 90 91 93 95 95 96 97 98 98 98 98 98 98 98 99 101 105
115 114 113 113 112 112 111 111 111 111 110 109 108 107 107 106 106 106 105 105 105 106 107 107 108 108 109 109 109 109 109 109 109 108 108 106 105 103 101 99 97 95 94 93 92 91 92 93 94 96 96 98 99 99 99 99 99 99 99 99 99 101 104
114 114 114 114 114 113 113 113 113 112 111 110 109 108 108 107 107 106 106 106 106 107 108 109 109 109 110 111 111 110 110 110 110 109 107 106 105 103 101 98 96 95 94 94 93 92 93 95 96 97 98 100 100 100 100 100 100 100 100 100 100 101 102
115 115 115 115 115 115 114 114 113 112 111 110 109 109 108 108 107 106 106 106 107 108 108 109 110 110 111 112 112 111 111 110 109 108 107 105 103 101 99 97 96 96 95 95 94 94 95 97 98 99 101 102 101 101 102 102 102 101 100 100 100 101 102
115 115 115 115 115 114 113 112 111 110 109 108 108 107 106 106 106 105 105 106 107 107 108 109 109 110 111 111 111 110 109 109 108 106 105 103 101 100 98 97 96 97 97 96 95 96 97 99 101 102 102 103 103 103 104 103 103 102 101 100 100 101 102
114 114 114 113 112 111 109 108 108 107 106 106 105 105 104 104 104 104 104 105 106 106 107 108 108 109 109 109 109 109 108 107 105 104 102 101 99 98 97 97 97 98 98 97 97 98 99 102 103 104 104 105 105 105 105 105 104 103 102 101 100 101 102
112 112 111 110 109 107 106 106 106 105 105 104 104 103 102 101 101 102 103 103 104 104 105 106 106 107 106 106 106 106 106 104 102 101 100 99 98 98 97 97 99 100 99 99 100 100 102 104 105 105 107 107 107 106 106 104 103 103 102 100 100 100 101
110 109 108 107 106 105 104 104 104 104 103 103 102 102 101 99 99 99 100 101 102 102 102 103 104 104 104 103 104 104 103 101 100 99 99 98 98 98 97 99 101 102 101 101 102 103 104 106 107 108 109 109 108 107 105 103 102 102 101 100 99 99 100
107 106 105 105 104 104 103 103 103 103 103 102 102 101 100 99 98 97 98 99 99 100 100 101 101 102 102 102 102 102 101 100 99 99 99 99 98 98 99 101 103 103 103 104 105 105 106 108 109 110 110 109 108 107 105 102 101 101 100 99 98 98 98
104 103 103 103 103 103 102 102 102 102 102 102 102 101 99 98 97 96 97 97 98 98 99 99 100 101 102 101 101 101 101 101 100 99 99 99 100 100 102 104 104 104 105 106 107 108 108 109 110 110 109 107 107 106 103 101 100 99 98 97 96 96 96
102 102 102 102 102 102 102 101 102 102 102 102 101 100 99 97 96 96 97 97 97 97 98 99 100 102 102 102 101 101 102 102 102 101 101 101 102 103 105 106 106 106 107 108 109 109 110 110 110 109 107 105 105 104 102 101 99 98 96 94 93 93 93
101 101 101 102 102 102 101 101 102 102 102 101 101 100 99 97 96 97 98 97 97 97 98 100 101 102 103 103 102 102 102 103 103 104 103 104 105 106 107 107 108 108 109 109 109 109 109 109 108 107 105 104 103 103 102 101 99 97 95 93 91 90 90
101 101 102 102 102 102 102 102 103 103 102 102 101 100 99 97 97 98 98 98 97 98 100 101 102 103 104 104 104 103 104 105 106 106 106 107 108 109 109 109 109 109 109 108 107 107 107 107 107 106 104 103 102 102 102 101 100 97 95 93 91 89 89
101 101 102 102 102 103 103 103 102 102 101 100 99 99 98 97 97 98 99 98 98 100 101 102 104 105 105 105 105 106 106 107 108 109 109 110 110 110 109 109 108 107 106 106 105 104 104 104 105 104 103 102 102 102 102 101 100 97 95 93 91 89 88
99 99 99 99 100 100 100 100 100 99 98 97 96 96 96 96 97 97 97 97 98 100 102 103 104 105 106 107 107 108 109 109 110 111 111 111 110 109 108 107 106 105 104 103 102 102 102 102 103 102 102 101 101 101 101 100 99 97 95 93 92 90 88
97 97 97 97 97 98 98 98 98 97 97 96 96 96 97 98 98 97 97 96 97 99 101 102 103 104 105 107 108 108 109 110 111 111 110 109 108 106 105 104 103 102 101 100 100 100 100 101 101 101 101 101 100 99 99 99 98 96 94 93 92 89 88
98 98 97 97 98 98 99 99 99 99 98 98 98 99 100 100 100 99 98 98 98 99 100 101 102 102 104 105 107 108 109 109 110 110 109 108 106 105 103 102 102 101 100 99 99 99 99 100 100 100 100 99 98 97 97 97 95 94 93 92 90 88 87
101 101 100 100 101 101 101 101 101 101 102 102 102 103 103 103 102 102 101 101 101 101 101 101 101 102 103 105 106 107 108 108 108 108 107 106 105 104 103 102 101 100 99 99 98 98 98 99 99 99 98 98 97 96 96 95 94 93 92 91 89 87 87
104 103 103 104 104 104 103 103 104 105 105 106 106 105 105 105 105 105 104 103 103 103 102 101 102 103 104 106 107 107 108 108 107 107 107 106 106 105 104 103 102 101 100 99 98 97 97 98 98 97 97 96 95 94 94 93 92 91 90 89 87 86 86
104 105 105 105 105 105 105 106 106 108 108 108 108 108 108 108 108 107 106 105 105 104 103 103 103 104 106 107 107 107 107 107 107 107 107 107 106 105 104 103 102 101 100 98 97 96 96 96 96 95 95 94 93 93 92 91 91 90 89 88 87 86 85
104 105 106 106 107 107 107 108 109 110 110 110 110 110 110 110 109 108 108 107 105 104 104 104 104 105 106 107 107 107 107 107 107 107 106 106 106 105 104 104 103 101 99 97 96 96 95 95 94 94 93 93 92 91 90 89 89 89 88 88 86 84 83
104 105 107 107 108 109 109 110 111 111 111 111 111 111 111 110 110 109 108 107 106 105 104 104 105 106 106 106 106 106 106 106 106 106 106 106 105 104 104 103 102 100 98 96 96 96 95 93 93 92 92 91 90 89 88 88 88 88 88 87 85 83 82
103 104 106 107 108 108 109 110 111 111 111 111 111 111 110 110 109 107 107 106 106 105 104 105 105 105 105 105 105 105 105 105 105 104 104 104 104 103 102 101 100 98 97 96 95 94 93 92 92 91 90 89 88 87 87 87 87 88 87 86 84 82 81
99 101 102 103 104 105 106 107 108 108 109 109 109 108 108 107 106 106 106 105 105 104 103 103 103 103 103 104 103 103 103 103 103 102 102 102 101 100 100 99 98 97 96 95 94 93 92 91 90 89 87 86 85 85 85 86 86 86 86 84 83 81 79
94 95 96 98 99 100 102 103 103 104 104 105 105 104 104 104 103 103 104 103 103 102 101 101 101 101 101 101 101 100 100 100 100 100 99 99 98 98 97 96 96 95 94 93 92 90 90 89 88 86 85 84 83 83 84 84 85 84 84 83 82 80 78
89 90 91 92 93 95 96 97 98 99 99 100 100 100 100 100 100 100 101 101 100 100 99 99 99 98 98 98 98 97 97 98 97 97 97 96 96 95 94 94 93 93 92 91 89 88 87 86 85 84 83 82 82 82 82 83 83 82 82 81 80 78 76
86 86 87 88 89 90 90 91 92 94 95 95 96 96 96 96 96 97 97 97 97 97 97 96 96 95 95 95 95 95 95 95 95 94 94 94 93 92 91 91 91 90 89 88 87 86 85 84 83 82 81 81 80 80 81 81 80 80 79 79 78 76 74
Wind_Direction
284 284 284 285 286 287 288 289 289 290 291 292 293 293 292 291 290 290 289 288 288 288 288 288 288 289 290 290 291 292 293 295 296 297 297 298 298 298 297 296 295 293 292 292 291 290 289 288 287 287 286 285 285 284 283 282 282 281 280 280 279 279 279
284 284 285 285 286 287 288 289 290 291 291 292 292 291 290 289 289 288 288 287 287 288 288 288 288 288 289 290 291 292 293 294 295 296 297 298 298 298 298 297 296 294 293 292 291 290 290 289 288 288 287 286 286 285 285 284 284 283 283 282 281 281 280
284 284 285 286 287 288 288 289 290 291 291 291 290 289 289 288 288 287 287 287 287 287 287 288 288 288 289 289 290 292 293 294 295 296 297 297 298 298 298 297 296 294 292 291 291 291 290 289 289 289 288 288 287 287 286 286 286 285 284 284 283 282 282
284 285 286 287 287 288 289 290 290 290 290 290 289 288 288 287 287 287 287 287 287 287 287 287 288 288 288 289 290 291 292 293 294 295 296 296 297 297 297 297 296 294 292 291 290 290 289 289 289 289 289 289 288 288 288 287 287 287 286 285 285 284 283
285 286 286 287 288 288 289 289 289 289 289 288 288 287 287 287 286 286 286 286 286 286 287 287 287 287 288 288 289 290 291 292 293 294 294 295 296 296 296 296 295 293 291 290 289 289 289 289 289 289 289 289 289 289 289 289 288 288 288 287 286 285 285
285 286 287 287 288 288 288 288 288 288 288 287 287 286 286 286 286 286 286 286 286 286 286 286 286 287 287 288 288 289 290 291 292 293 294 294 295 295 295 295 294 293 291 289 288 288 288 288 288 289 289 289 289 289 289 289 289 289 288 288 287 287 286
285 286 286 287 287 287 287 287 287 287 286 286 286 286 286 286 285 285 285 285 285 285 286 286 286 286 287 288 288 289 290 291 292 292 293 294 294 294 294 294 293 292 290 289 288 288 287 288 288 288 288 288 289 288 288 289 289 289 289 288 288 288 287
285 285 286 286 286 286 286 286 286 286 286 285 285 285 285 285 285 285 285 285 285 285 285 285 286 286 287 288 288 289 290 291 291 292 292 293 293 293 293 293 292 291 289 288 288 287 287 287 287 287 288 288 288 288 288 288 289 289 289 289 289 289 288
284 285 285 285 285 285 285 285 285 285 285 285 285 285 285 285 284 284 284 284 284 284 285 285 285 286 287 287 288 289 289 290 290 291 291 292 292 292 292 292 291 290 289 288 287 287 287 287 287 287 287 288 288 288 288 288 289 289 289 289 290 290 289
284 284 284 284 284 284 285 285 285 285 285 285 285 285 284 284 284 283 284 284 284 284 284 285 285 286 286 287 288 288 289 289 290 290 291 291 291 291 291 291 290 289 288 287 287 287 287 287 287 287 287 288 288 288 288 289 289 289 290 290 290 290 289
283 283 283 284 284 284 285 285 285 285 284 284 284 284 283 283 283 283 283 283 284 284 284 284 285 285 286 287 287 288 288 289 289 290 290 290 290 290 290 289 289 288 287 287 287 287 287 287 286 287 288 288 288 288 289 289 289 290 290 290 290 289 289
283 283 283 283 284 284 284 284 284 284 284 284 283 283 283 283 282 282 283 283 283 283 284 284 284 285 286 286 287 287 288 288 289 289 289 289 289 289 289 288 288 287 287 287 287 287 287 287 287 287 288 288 288 289 289 289 290 290 290 290 290 289 289
282 283 283 283 283 283 283 283 283 283 283 283 283 282 282 282 282 282 282 282 282 282 283 283 284 285 285 285 286 286 287 287 288 288 288 288 288 288 288 288 287 287 286 287 287 287 287 287 288 288 288 289 289 290 290 290 290 290 290 290 290 289 289
282 282 282 282 282 283 283 283 283 283 283 282 282 282 281 282 282 282 282 281 281 282 282 282 283 283 283 284 285 285 285 286 286 286 287 287 287 287 287 287 287 286 286 287 287 288 288 288 288 289 289 290 290 290 290 291 291 291 290 290 290 289 288
282 282 282 282 282 283 283 283 283 282 282 282 281 281 281 281 281 281 281 281 281 281 281 281 282 282 282 283 284 284 284 284 285 285 286 286 286 286 286 286 286 286 286 287 288 288 288 289 289 290 290 291 291 291 291 291 291 291 290 290 289 289 288
282 282 282 282 283 283 283 282 282 282 282 281 281 281 281 281 281 281 281 281 280 281 281 281 281 281 282 282 282 283 283 284 284 285 285 285 285 286 286 286 286 286 287 288 288 288 289 289 290 290 291 291 291 291 290 290 291 290 290 289 289 288 287
282 282 282 282 282 282 282 282 282 282 282 281 281 281 281 281 281 281 281 281 280 281 280 281 281 281 281 282 282 282 283 283 284 284 284 285 285 285 286 286 285 286 287 288 288 289 289 290 290 291 291 291 291 290 290 290 290 290 289 289 288 287 287
281 282 282 281 281 281 281 281 281 281 281 281 281 281 281 281 281 280 280 280 280 280 280 280 281 281 281 281 281 282 283 283 283 283 284 284 285 285 285 285 285 286 287 288 289 289 290 290 290 290 290 290 290 290 290 290 290 289 289 289 288 288 287
281 281 280 280 280 280 280 280 280 280 280 280 280 280 280 280 280 280 280 280 280 280 280 281 281 281 281 281 282 282 282 283 283 283 284 284 284 285 284 285 286 287 288 288 289 290 290 290 290 290 290 289 289 289 289 289 289 288 288 288 288 288 287
280 280 280 280 280 279 279 279 279 279 279 279 279 280 280 280 280 280 279 279 279 280 280 280 280 280 281 281 281 282 282 283 283 283 283 284 284 284 284 285 286 287 288 289 289 290 290 290 290 289 289 289 289 289 289 289 288 288 288 288 287 287 287
279 279 279 279 279 279 279 278 278 278 278 278 279 279 279 279 279 279 279 279 279 279 279 279 279 280 280 281 281 282 282 283 283 283 283 284 284 284 285 286 287 287 288 289 289 290 290 290 290 290 289 289 290 290 289 289 288 288 288 288 287 287 286
278 278 278 278 278 278 278 277 277 277 278 278 278 279 279 279 279 279 279 279 279 279 279 279 279 280 280 281 281 282 282 282 282 283 283 283 284 284 285 286 287 288 288 289 289 289 290 290 290 290 290 290 290 290 290 289 289 289 289 288 287 287 285
277 277 277 276 276 277 276 277 277 277 277 278 278 279 279 279 278 278 278 279 279 279 279 279 279 279 280 281 281 281 282 282 282 283 283 283 284 285 286 287 287 288 288 289 289 289 289 290 290 290 290 290 290 290 290 290 289 289 289 289 288 287 286
277 276 276 275 275 276 276 276 276 277 277 278 278 279 279 279 278 278 278 279 279 279 278 279 279 279 280 280 281 281 281 282 282 282 283 283 284 285 286 286 287 288 288 288 289 289 289 289 290 290 290 290 289 289 289 289 289 290 290 289 288 287 287
277 276 275 275 275 275 275 275 276 276 277 278 278 278 278 278 278 278 279 279 279 278 278 278 279 279 280 280 281 281 281 281 282 282 283 283 284 285 286 286 287 287 288 288 288 288 289 289 289 289 289 289 289 289 289 289 289 290 290 289 288 288 288
277 276 275 275 275 274 274 275 276 276 277 277 277 277 277 278 278 279 279 279 279 278 278 279 279 280 280 280 280 280 281 281 282 282 283 284 285 285 286 286 286 287 287 287 288 288 288 289 289 288 288 288 288 288 288 288 289 289 289 289 288 288 288
276 276 276 275 275 275 275 275 276 276 276 276 276 276 277 278 278 278 279 279 278 278 279 279 280 280 280 280 280 280 280 281 282 283 284 284 285 285 286 286 286 287 287 287 287 288 288 288 288 287 287 287 287 288 288 288 288 288 288 288 288 288 288
275 275 275 275 275 275 275 275 275 275 275 275 276 276 277 277 278 278 278 278 278 279 279 279 279 279 279 279 280 280 281 281 282 283 284 284 285 285 286 286 286 287 287 287 287 287 287 287 287 287 287 287 287 287 287 288 288 288 288 288 288 288 288
273 273 274 274 274 274 274 274 274 274 274 275 275 276 276 277 277 277 278 278 278 278 279 279 278 278 279 279 279 280 281 281 282 283 283 284 284 285 285 286 286 286 286 287 287 287 286 286 286 286 286 286 287 287 287 288 288 288 287 287 288 288 288
271 271 272 272 272 272 272 272 272 273 273 274 274 275 275 276 276 277 277 277 278 278 278 278 277 277 278 278 279 280 281 281 282 282 283 283 284 285 285 285 285 286 286 286 287 286 286 286 286 286 286 286 286 287 287 287 287 287 287 287 288 288 288
269 269 269 270 270 270 271 271 271 272 273 273 274 274 275 275 275 276 277 277 277 277 277 277 277 277 277 278 279 279 280 281 281 282 282 283 283 284 284 285 285 285 286 286 286 286 286 286 286 286 286 286 287 287 287 287 287 287 287 287 288 288 287
267 267 268 268 268 269 270 270 271 271 272 272 273 273 274 274 275 275 276 276 276 276 276 276 276 277 277 278 278 279 279 280 281 281 282 282 283 283 284 284 285 285 285 285 285 285 285 285 285 286 286 286 287 287 287 287 287 287 287 288 288 287 287
267 267 267 267 268 268 269 269 270 270 271 271 272 272 273 274 274 274 275 275 275 275 276 276 276 277 277 277 278 278 279 280 280 280 281 281 282 282 283 284 284 284 285 284 284 285 285 285 285 285 286 286 286 286 287 287 287 287 287 287 287 287 287
268 267 267 267 267 268 268 268 269 270 270 271 271 272 273 273 274 274 274 275 275 275 276 276 276 276 277 277 278 278 279 279 279 280 280 281 281 282 282 283 283 283 283 284 284 284 284 284 285 285 285 285 286 286 286 286 287 287 287 287 286 286 286
269 268 268 268 267 267 268 268 269 269 270 270 271 271 272 272 273 273 274 274 275 275 275 276 276 276 277 277 278 278 278 279 279 280 280 280 281 281 282 282 282 282 283 283 283 284 284 284 284 285 285 285 286 286 286 286 286 286 286 285 285 285 285
270 269 269 268 268 268 268 268 269 269 269 270 270 271 271 272 272 273 273 274 274 275 275 276 276 276 277 277 278 278 278 278 279 279 280 280 281 281 281 281 282 282 282 283 283 283 284 284 285 285 285 286 286 286 285 285 285 285 285 284 284 284 284
Height
10279 10275 10273 10270 10267 10263 10259 10257 10253 10250 10246 10242 10238 10233 10229 10225 10220 10217 10213 10209 10206 10202 10199 10196 10193 10190 10187 10185 10181 10177 10174 10171 10167 10164 10159 10154 10150 10146 10142 10139 10136 10134 10125 10111 10105 10104 10100 10099 10099 10096 10093 10093 10091 10089 10089 10087 10085 10082 10080 10078 10075 10071 10067
10264 10261 10259 10257 10253 10249 10245 10242 10239 10236 10232 10228 10224 10219 10215 10211 10207 10203 10200 10196 10193 10190 10187 10184 10180 10177 10175 10172 10168 10164 10161 10158 10155 10151 10147 10142 10139 10135 10131 10128 10125 10122 10117 10106 10095 10091 10088 10086 10086 10083 10080 10080 10079 10075 10074 10074 10071 10068 10065 10063 10061 10058 10053
10250 10247 10245 10242 10238 10235 10231 10228 10225 10221 10218 10214 10209 10205 10201 10198 10194 10190 10187 10184 10180 10177 10174 10171 10167 10163 10161 10159 10155 10151 10148 10146 10143 10139 10135 10130 10126 10124 10120 10117 10113 10109 10107 10101 10090 10080 10076 10074 10072 10069 10067 10066 10065 10063 10061 10060 10057 10054 10051 10048 10046 10044 10040
10235 10232 10229 10226 10223 10220 10216 10213 10209 10206 10203 10199 10195 10191 10188 10184 10181 10177 10174 10171 10167 10164 10161 10158 10154 10150 10148 10146 10142 10138 10135 10134 10131 10127 10123 10119 10115 10112 10109 10105 10102 10098 10094 10092 10085 10073 10065 10062 10060 10056 10053 10052 10051 10049 10047 10046 10043 10039 10036 10032 10030 10029 10026
10219 10216 10213 10210 10208 10205 10202 10197 10193 10190 10187 10184 10181 10177 10174 10171 10168 10164 10161 10158 10155 10151 10148 10145 10140 10136 10135 10133 10129 10125 10124 10121 10119 10115 10111 10107 10103 10100 10097 10093 10089 10086 10082 10080 10077 10068 10057 10052 10049 10045 10040 10039 10039 10036 10033 10032 10030 10025 10021 10016 10013 10012 10011
10203 10200 10197 10194 10192 10190 10186 10181 10178 10175 10172 10169 10166 10163 10160 10157 10154 10151 10148 10145 10141 10138 10135 10131 10127 10123 10121 10119 10115 10113 10111 10109 10106 10102 10098 10094 10091 10088 10085 10081 10076 10073 10070 10067 10064 10060 10051 10043 10038 10034 10029 10026 10026 10024 10020 10018 10016 10012 10006 10001 9998 9994 9993
10187 10184 10181 10179 10176 10173 10169 10166 10163 10160 10157 10155 10152 10149 10147 10144 10141 10137 10134 10131 10127 10124 10121 10117 10113 10109 10106 10104 10101 10099 10097 10095 10092 10089 10084 10080 10078 10075 10072 10068 10063 10060 10057 10054 10052 10048 10043 10035 10028 10023 10018 10015 10014 10012 10009 10006 10004 10000 9993 9988 9984 9978 9974
10171 10168 10165 10163 10160 10157 10153 10151 10149 10146 10142 10140 10137 10135 10133 10130 10127 10124 10120 10117 10114 10110 10107 10102 10098 10095 10092 10089 10087 10085 10083 10080 10078 10074 10070 10067 10064 10062 10059 10054 10050 10046 10043 10041 10039 10036 10031 10026 10019 10011 10007 10005 10002 9999 9996 9994 9992 9989 9982 9976 9972 9964 9956
10155 10152 10150 10147 10144 10141 10138 10135 10133 10130 10126 10124 10123 10120 10118 10115 10112 10109 10106 10103 10100 10096 10092 10088 10084 10081 10077 10075 10072 10070 10068 10066 10063 10060 10056 10053 10050 10048 10045 10041 10036 10032 10029 10027 10027 10024 10019 10015 10008 10000 9996 9994 9990 9985 9984 9981 9978 9977 9972 9966 9962 9952 9941
10140 10137 10134 10130 10128 10125 10123 10120 10117 10113 10110 10109 10108 10105 10102 10100 10097 10094 10091 10089 10086 10082 10077 10073 10070 10066 10062 10060 10058 10056 10054 10051 10048 10045 10041 10039 10036 10033 10030 10027 10022 10018 10015 10013 10013 10011 10006 10002 9996 9988 9985 9983 9977 9973 9971 9968 9965 9963 9960 9955 9952 9942 9928
10124 10121 10117 10114 10112 10110 10107 10104 10100 10096 10094 10093 10092 10089 10086 10084 10081 10079 10076 10073 10070 10066 10062 10058 10055 10052 10048 10045 10043 10040 10038 10036 10033 10030 10027 10024 10021 10018 10015 10012 10008 10004 10001 9999 9999 9997 9992 9987 9982 9977 9973 9969 9963 9961 9959 9955 9952 9950 9947 9942 9939 9932 9920
10108 10105 10102 10099 10096 10093 10090 10087 10083 10080 10078 10077 10075 10072 10070 10067 10065 10063 10061 10059 10055 10051 10047 10043 10040 10037 10033 10029 10027 10025 10023 10020 10017 10015 10013 10010 10007 10004 10000 9996 9993 9990 9987 9985 9985 9983 9978 9972 9968 9964 9959 9953 9950 9948 9945 9941 9938 9936 9933 9929 9924 9918 9910
10092 10089 10086 10082 10079 10076 10074 10070 10067 10064 10062 10060 10058 10055 10053 10051 10049 10048 10046 10043 10040 10036 10032 10029 10025 10022 10018 10013 10011 10011 10008 10005 10002 10000 9998 9996 9992 9989 9985 9982 9979 9974 9972 9971 9971 9968 9963 9957 9952 9949 9944 9938 9936 9934 9930 9926 9924 9922 9919 9915 9910 9904 9897
10075 10072 10068 10064 10062 10060 10058 10054 10050 10047 10045 10043 10040 10038 10037 10035 10034 10033 10031 10027 10024 10021 10018 10014 10011 10008 10004 9999 9997 9996 9993 9990 9988 9986 9984 9982 9978 9974 9971 9968 9964 9959 9957 9957 9956 9954 9949 9941 9936 9933 9929 9924 9921 9918 9914 9911 9909 9906 9903 9901 9896 9890 9882
10057 10053 10049 10046 10044 10043 10042 10038 10033 10030 10028 10026 10024 10022 10022 10021 10019 10016 10014 10012 10008 10005 10002 9999 9995 9992 9989 9986 9983 9980 9977 9976 9974 9973 9970 9967 9964 9960 9957 9954 9949 9944 9944 9944 9942 9939 9935 9927 9920 9917 9913 9909 9906 9903 9899 9896 9895 9892 9888 9886 9882 9875 9868
10038 10034 10031 10029 10028 10026 10025 10020 10015 10013 10011 10010 10008 10006 10006 10007 10005 10000 9998 9996 9992 9990 9987 9983 9979 9976 9974 9972 9969 9964 9962 9961 9960 9958 9956 9953 9950 9947 9945 9940 9933 9929 9930 9930 9927 9924 9919 9913 9907 9903 9898 9894 9891 9888 9884 9882 9881 9876 9873 9871 9868 9861 9853
10019 10016 10014 10013 10011 10009 10007 10003 9999 9997 9995 9993 9992 9990 9990 9992 9991 9987 9983 9979 9976 9974 9971 9967 9964 9961 9959 9957 9953 9949 9948 9948 9946 9944 9941 9938 9935 9933 9931 9925 9917 9916 9917 9915 9912 9909 9903 9898 9893 9887 9882 9879 9875 9871 9869 9869 9867 9861 9857 9856 9852 9846 9840
10002 10000 9998 9996 9993 9991 9989 9986 9983 9981 9979 9977 9975 9975 9975 9976 9976 9974 9970 9965 9961 9959 9956 9953 9949 9946 9944 9942 9938 9935 9935 9934 9932 9930 9927 9923 9921 9919 9915 9908 9903 9904 9903 9899 9896 9893 9888 9883 9878 9872 9867 9864 9859 9855 9854 9855 9852 9847 9843 9841 9837 9832 9826
9986 9984 9982 9979 9976 9975 9973 9970 9968 9965 9963 9961 9960 9960 9961 9961 9961 9960 9956 9951 9948 9945 9942 9938 9934 9930 9928 9927 9924 9921 9919 9918 9917 9916 9913 9910 9908 9905 9899 9893 9891 9892 9889 9883 9880 9876 9872 9867 9862 9856 9853 9849 9844 9839 9838 9838 9837 9833 9830 9828 9824 9819 9813
9970 9968 9965 9962 9960 9958 9956 9954 9952 9949 9946 9945 9944 9944 9946 9947 9947 9944 9940 9937 9936 9933 9929 9924 9919 9915 9912 9912 9910 9907 9904 9902 9901 9900 9898 9896 9893 9889 9883 9880 9880 9878 9874 9870 9866 9860 9855 9851 9844 9839 9837 9834 9829 9824 9821 9820 9820 9818 9816 9815 9812 9807 9801
9954 9951 9949 9946 9943 9942 9940 9937 9935 9933 9930 9929 9929 9929 9930 9933 9932 9928 9925 9924 9923 9920 9915 9910 9905 9901 9898 9897 9896 9894 9891 9887 9884 9883 9882 9880 9876 9872 9870 9868 9867 9864 9860 9856 9851 9845 9840 9834 9827 9822 9820 9817 9813 9808 9803 9801 9800 9801 9800 9800 9798 9794 9789
9938 9936 9933 9930 9927 9925 9923 9920 9918 9916 9914 9914 9914 9913 9914 9917 9916 9912 9909 9910 9909 9905 9901 9895 9891 9887 9884 9882 9881 9880 9877 9873 9869 9867 9866 9864 9860 9857 9856 9854 9853 9850 9846 9842 9837 9831 9825 9819 9812 9807 9804 9801 9797 9792 9786 9783 9782 9782 9783 9782 9781 9779 9775
9923 9920 9917 9915 9912 9909 9906 9903 9902 9900 9899 9898 9898 9898 9898 9900 9899 9896 9894 9895 9894 9890 9885 9881 9877 9873 9870 9868 9867 9864 9862 9859 9855 9851 9849 9847 9845 9843 9841 9840 9838 9835 9831 9827 9823 9818 9812 9805 9798 9793 9790 9787 9782 9776 9771 9767 9765 9765 9765 9764 9763 9761 9758
9907 9904 9901 9899 9896 9893 9890 9887 9886 9884 9884 9883 9883 9882 9882 9881 9881 9880 9880 9880 9879 9874 9869 9865 9862 9859 9857 9854 9851 9849 9846 9843 9839 9835 9833 9831 9830 9829 9827 9826 9823 9820 9817 9813 9809 9804 9798 9792 9786 9781 9777 9773 9768 9763 9758 9753 9750 9749 9749 9747 9745 9743 9742
9890 9888 9886 9883 9881 9878 9875 9872 9871 9870 9869 9869 9868 9867 9864 9862 9863 9864 9865 9865 9863 9859 9854 9850 9848 9846 9843 9839 9836 9833 9829 9826 9822 9819 9817 9816 9815 9814 9813 9811 9809 9806 9802 9799 9795 9790 9785 9780 9774 9769 9765 9759 9755 9751 9746 9741 9738 9736 9734 9731 9729 9727 9726
9873 9871 9870 9868 9866 9862 9859 9858 9857 9856 9854 9853 9852 9849 9846 9846 9847 9848 9848 9848 9846 9843 9839 9836 9834 9832 9828 9824 9820 9816 9813 9809 9806 9803 9801 9800 9799 9798 9797 9795 9793 9791 9788 9785 9780 9776 9772 9767 9762 9756 9752 9746 9742 9739 9734 9729 9727 9725 9720 9717 9715 9714 9712
9855 9854 9853 9851 9848 9846 9844 9844 9843 9841 9838 9836 9834 9832 9831 9831 9831 9831 9830 9830 9829 9826 9824 9823 9821 9817 9813 9808 9804 9800 9797 9794 9791 9788 9787 9785 9784 9782 9781 9779 9777 9775 9772 9769 9766 9763 9759 9754 9748 9743 9738 9734 9729 9726 9720 9716 9714 9711 9707 9704 9702 9701 9698
9838 9837 9836 9833 9831 9829 9829 9829 9826 9823 9819 9818 9817 9817 9816 9815 9814 9813 9813 9812 9811 9810 9810 9809 9806 9801 9796 9792 9788 9784 9782 9779 9777 9774 9772 9770 9768 9766 9765 9763 9761 9759 9756 9754 9751 9749 9745 9739 9734 9730 9725 9721 9717 9712 9707 9703 9700 9697 9694 9691 9690 9688 9685
9822 9820 9818 9816 9814 9813 9813 9811 9808 9804 9802 9801 9801 9800 9799 9798 9797 9796 9796 9795 9794 9795 9795 9793 9789 9784 9779 9775 9772 9769 9767 9765 9762 9760 9758 9754 9752 9750 9749 9746 9744 9742 9740 9739 9737 9734 9729 9724 9720 9717 9712 9708 9704 9700 9695 9691 9686 9683 9680 9678 9676 9675 9672
9805 9803 9801 9799 9798 9796 9794 9793 9790 9787 9786 9786 9785 9783 9782 9781 9780 9779 9779 9778 9778 9778 9778 9776 9772 9768 9763 9760 9757 9755 9752 9750 9747 9745 9743 9739 9736 9735 9733 9731 9728 9726 9725 9724 9722 9718 9714 9710 9707 9703 9699 9695 9691 9687 9683 9678 9673 9669 9666 9664 9663 9662 9660
9788 9786 9784 9782 9780 9778 9776 9774 9772 9771 9770 9770 9768 9766 9765 9764 9763 9763 9762 9761 9760 9761 9761 9758 9755 9752 9749 9746 9743 9741 9738 9735 9733 9731 9727 9724 9722 9720 9717 9715 9713 9711 9710 9709 9706 9701 9699 9696 9693 9689 9685 9682 9678 9674 9670 9665 9660 9656 9653 9651 9650 9650 9647
9770 9768 9766 9764 9763 9761 9759 9757 9756 9754 9754 9753 9751 9749 9748 9748 9747 9747 9745 9744 9743 9744 9744 9741 9739 9737 9734 9731 9729 9726 9724 9721 9719 9716 9713 9710 9708 9705 9702 9700 9698 9696 9695 9693 9690 9686 9684 9682 9678 9675 9672 9669 9665 9662 9657 9653 9648 9643 9639 9638 9637 9636 9634
9751 9749 9748 9747 9746 9744 9742 9741 9739 9738 9737 9736 9734 9733 9732 9732 9732 9731 9728 9727 9726 9727 9726 9725 9723 9722 9719 9716 9714 9712 9710 9708 9705 9701 9699 9696 9694 9691 9689 9686 9684 9682 9680 9678 9676 9673 9671 9668 9664 9662 9660 9657 9654 9650 9645 9641 9635 9630 9627 9626 9624 9623 9622
9732 9731 9731 9730 9729 9727 9726 9724 9723 9721 9720 9719 9718 9718 9717 9716 9716 9714 9712 9710 9710 9711 9710 9709 9708 9706 9704 9701 9700 9698 9696 9693 9690 9687 9685 9683 9680 9678 9676 9673 9670 9667 9665 9663 9662 9660 9657 9654 9652 9650 9647 9645 9642 9638 9633 9628 9623 9619 9616 9613 9611 9610 9610
9715 9714 9714 9713 9712 9711 9710 9709 9708 9706 9705 9704 9702 9702 9701 9701 9700 9698 9695 9694 9695 9694 9693 9692 9692 9691 9689 9687 9685 9683 9681 9678 9675 9672 9670 9668 9666 9665 9663 9660 9656 9654 9651 9649 9648 9646 9643 9641 9639 9637 9634 9632 9630 9626 9621 9616 9612 9608 9605 9602 9599 9599 9598
9698 9698 9697 9696 9695 9695 9695 9694 9693 9691 9689 9687 9686 9686 9687 9687 9686 9683 9681 9680 9679 9678 9678 9678 9677 9676 9674 9672 9670 9668 9666 9663 9661 9658 9656 9654 9652 9651 9649 9645 9642 9640 9638 9636 9634 9632 9630 9628 9626 9623 9621 9619 9617 9613 9609 9604 9600 9597 9594 9590 9588 9587 9586